Date String (YYYY-MM-DD hh:mm:ss) UTC,Instrument flags,Ambient pressure (hPa),Sample flow (lpm),Bypass flow (lpm),Sample temperature (°C),Ambient temperature (°C),ASC tube jacket temperature (°C),LED temperature (°C),Box temperature (°C),Sample RH (%),Span deviation,Mass concentration (μg/m³),Mass concentration (μg/m³),Mass concentration (μg/m³)
DateTimeUTC,F1_M11,P_M11,Q1_M11,Q2_M11,T1_M11,T2_M11,T3_M11,T4_M11,T5_M11,U1_M11,ZSPAN_M11,X2_M11,X0_M11,X1_M11
2023-04-23 02:00:00,,0831.9,4.99,0.00,22.1,22.5,00.0,30.3,24.1,17.4,-000.9,0011.79,0018.27,0010.26
2023-04-23 02:01:00,,0831.9,5.00,0.00,22.1,22.2,00.0,30.4,23.9,17.4,-000.8,0011.78,0018.64,0010.28
2023-04-23 02:02:00,,0831.9,5.00,0.00,22.1,21.8,00.0,30.4,23.8,17.4,-000.4,0011.77,0018.61,0010.32
2023-04-23 02:03:00,,0831.8,5.00,0.00,22.1,21.5,00.0,30.4,23.7,17.5,0000.1,0011.72,0018.34,0010.34
2023-04-23 02:04:00,,0831.8,5.01,0.00,22.1,21.2,00.0,30.5,23.6,17.4,-000.0,0011.70,0018.17,0010.34
2023-04-23 02:05:00,,0831.9,5.00,0.00,22.0,21.0,00.0,30.5,23.6,17.5,-000.1,0011.69,0018.05,0010.35
2023-04-23 02:06:00,,0831.9,5.00,0.00,22.0,20.8,00.0,30.5,23.5,17.4,0000.1,0011.66,0017.53,0010.36
2023-04-23 02:07:00,,0831.9,5.00,0.00,22.0,20.6,00.0,30.5,23.4,17.4,0000.0,0011.62,0017.26,0010.38
2023-04-23 02:08:00,,0831.9,5.00,0.00,21.9,20.5,00.0,30.4,23.4,17.5,0000.1,0011.60,0017.16,0010.38
2023-04-23 02:09:00,,0831.9,4.99,0.00,21.9,20.4,00.0,30.4,23.4,17.6,-000.0,0011.53,0017.26,0010.38
2023-04-23 02:10:00,,0831.9,5.00,0.00,21.9,20.3,00.0,30.4,23.3,17.5,-000.3,0011.47,0017.95,0010.37
2023-04-23 02:11:00,,0832.0,5.00,0.00,21.8,20.2,00.0,30.4,23.3,17.6,-000.6,0011.48,0018.41,0010.38
2023-04-23 02:12:00,,0831.9,5.00,0.00,21.8,20.1,00.0,30.4,23.3,17.7,-000.7,0011.46,0017.57,0010.38
2023-04-23 02:13:00,,0831.9,5.00,0.00,21.8,20.0,00.0,30.4,23.2,17.7,-001.0,0011.40,0017.64,0010.36
2023-04-23 02:14:00,,0831.9,5.00,0.00,21.7,19.9,00.0,30.3,23.2,17.7,-001.2,0011.35,0017.67,0010.34
2023-04-23 02:15:00,,0832.0,5.00,0.00,21.7,20.2,00.0,30.3,23.3,17.7,-001.2,0011.34,0017.82,0010.33
2023-04-23 02:16:00,,0832.0,5.01,0.00,21.9,21.5,00.0,30.2,23.8,17.6,-000.9,0011.33,0017.71,0010.33
2023-04-23 02:17:00,,0832.0,4.99,0.00,22.0,22.8,00.0,30.2,24.2,17.5,-000.7,0011.33,0017.80,0010.31
2023-04-23 02:18:00,,0832.0,4.99,0.00,22.2,23.1,00.0,30.3,24.2,17.4,-000.6,0011.32,0017.81,0010.29
2023-04-23 02:19:00,,0832.0,5.00,0.00,22.2,22.7,00.0,30.4,24.1,17.4,-000.9,0011.29,0017.75,0010.28
2023-04-23 02:20:00,,0832.0,5.00,0.00,22.2,22.3,00.0,30.5,23.9,17.4,-000.9,0011.24,0017.27,0010.27
2023-04-23 02:21:00,,0832.0,5.00,0.00,22.2,21.9,00.0,30.5,23.8,17.4,-000.9,0011.18,0016.13,0010.25
2023-04-23 02:22:00,,0832.0,5.00,0.00,22.2,21.6,00.0,30.5,23.8,17.4,-000.6,0011.12,0015.37,0010.22
2023-04-23 02:23:00,,0832.0,5.00,0.00,22.2,21.4,00.0,30.5,23.7,17.5,-000.1,0011.12,0015.39,0010.21
2023-04-23 02:24:00,,0831.9,5.00,0.00,22.1,21.1,00.0,30.5,23.7,17.6,0000.0,0011.13,0015.33,0010.20
2023-04-23 02:25:00,,0831.9,5.00,0.00,22.1,20.9,00.0,30.5,23.6,17.7,0000.2,0011.08,0015.02,0010.17
2023-04-23 02:26:00,,0831.9,5.00,0.00,22.1,20.7,00.0,30.5,23.6,17.8,0000.3,0011.03,0014.66,0010.17
2023-04-23 02:27:00,,0831.9,5.00,0.00,22.1,20.6,00.0,30.5,23.6,17.8,0000.0,0011.03,0014.69,0010.15
2023-04-23 02:28:00,,0831.9,5.01,0.00,22.0,20.5,00.0,30.5,23.5,17.9,-000.1,0011.03,0014.66,0010.15
2023-04-23 02:29:00,,0832.0,5.00,0.00,22.0,20.5,00.0,30.5,23.5,18.0,-000.4,0011.03,0014.54,0010.16
2023-04-23 02:30:00,,0832.0,5.01,0.00,22.0,20.4,00.0,30.5,23.5,18.2,-000.1,0011.01,0014.48,0010.18
2023-04-23 02:31:00,,0832.0,4.99,0.00,22.0,20.4,00.0,30.5,23.4,18.2,-000.0,0011.07,0014.65,0010.19
2023-04-23 02:32:00,,0832.0,5.00,0.00,21.9,20.3,00.0,30.5,23.4,18.3,0000.2,0011.14,0014.87,0010.20
2023-04-23 02:33:00,,0832.0,4.99,0.00,21.9,20.3,00.0,30.5,23.4,18.4,0000.3,0011.16,0015.04,0010.22
2023-04-23 02:34:00,,0832.0,5.00,0.00,21.9,20.3,00.0,30.5,23.4,18.4,-000.1,0011.14,0015.49,0010.23
2023-04-23 02:35:00,,0832.0,5.00,0.00,21.9,20.3,00.0,30.4,23.4,18.3,-000.0,0011.15,0015.29,0010.24
2023-04-23 02:36:00,,0832.0,5.00,0.00,21.9,20.2,00.0,30.4,23.4,18.1,-000.3,0011.18,0015.34,0010.26
2023-04-23 02:37:00,,0832.0,5.00,0.00,21.9,20.2,00.0,30.4,23.4,18.0,-000.3,0011.20,0015.93,0010.25
2023-04-23 02:38:00,,0832.0,5.00,0.00,21.9,20.2,00.0,30.4,23.4,17.8,-000.2,0011.18,0016.39,0010.24
2023-04-23 02:39:00,,0832.0,5.00,0.00,21.9,20.2,00.0,30.4,23.3,17.8,-000.6,0011.17,0016.35,0010.24
2023-04-23 02:40:00,,0832.0,5.00,0.00,21.8,20.2,00.0,30.4,23.3,17.8,-000.4,0011.17,0016.46,0010.21
2023-04-23 02:41:00,,0832.0,5.00,0.00,21.8,20.2,00.0,30.4,23.3,17.9,-000.3,0011.20,0016.57,0010.19
2023-04-23 02:42:00,,0832.0,5.00,0.00,21.8,20.1,00.0,30.3,23.3,17.8,-000.4,0011.16,0016.72,0010.15
2023-04-23 02:43:00,,0832.0,5.01,0.00,21.8,20.1,00.0,30.3,23.3,17.7,-000.8,0011.08,0016.96,0010.12
2023-04-23 02:44:00,,0832.0,5.00,0.00,21.8,20.1,00.0,30.3,23.3,17.7,-001.2,0011.01,0016.87,0010.07
2023-04-23 02:45:00,,0832.0,5.00,0.00,21.8,20.1,00.0,30.3,23.3,17.7,-001.2,0010.96,0016.36,0010.02
2023-04-23 02:46:00,,0832.0,5.00,0.00,21.8,20.1,00.0,30.3,23.3,17.7,-001.2,0010.91,0016.36,0009.96
2023-04-23 02:47:00,,0832.0,5.00,0.00,21.8,20.0,00.0,30.3,23.2,17.7,-001.2,0010.86,0016.33,0009.93
2023-04-23 02:48:00,,0832.0,5.00,0.00,21.8,20.3,00.0,30.2,23.4,17.7,-001.3,0010.80,0015.74,0009.90
2023-04-23 02:49:00,,0832.1,5.01,0.00,21.9,21.4,00.0,30.2,23.8,17.5,-001.5,0010.75,0015.74,0009.87
2023-04-23 02:50:00,,0832.2,5.00,0.00,22.0,22.6,00.0,30.2,24.2,17.4,-001.3,0010.68,0015.93,0009.81
2023-04-23 02:51:00,,0832.2,4.99,0.00,22.2,23.0,00.0,30.3,24.2,17.3,-001.1,0010.64,0015.83,0009.77
2023-04-23 02:52:00,,0832.2,4.99,0.00,22.2,22.7,00.0,30.3,24.1,17.2,-001.1,0010.57,0016.04,0009.74
2023-04-23 02:53:00,,0832.2,5.00,0.00,22.2,22.3,00.0,30.4,24.0,17.2,-000.8,0010.54,0015.91,0009.72
2023-04-23 02:54:00,,0832.2,5.00,0.00,22.2,21.9,00.0,30.4,23.9,17.2,-000.7,0010.53,0015.64,0009.71
2023-04-23 02:55:00,,0832.2,5.00,0.00,22.2,21.6,00.0,30.5,23.8,17.2,-000.7,0010.55,0015.42,0009.70
2023-04-23 02:56:00,,0832.2,5.00,0.00,22.2,21.4,00.0,30.5,23.8,17.2,-000.6,0010.60,0015.61,0009.70
2023-04-23 02:57:00,,0832.2,5.01,0.00,22.2,21.1,00.0,30.5,23.7,17.2,-000.8,0010.62,0015.57,0009.70
2023-04-23 02:58:00,,0832.2,5.01,0.00,22.2,20.9,00.0,30.5,23.7,17.3,-000.7,0010.64,0015.63,0009.68
2023-04-23 02:59:00,,0832.2,5.00,0.00,22.1,20.8,00.0,30.5,23.7,17.3,-000.3,0010.63,0015.68,0009.66
